When you browse on this site, cookies collect data to enhance your experience and personalize the content and advertising you see.
Visit our Privacy Policy to learn more. By continuing to use the site, you agree to this use of cookies and data.
  • In Österreich
  • Länderverzeichnis
  • Für 7 Tage
  • Wassertemperatur
  • Wetterkarte
  • News
  • Widgets
  • user-avatar
    Anmelden

    Stündliche Wetter Roscanvel

    Heute, 18 August, Sonntag

    Zeit Temperatur Niederschläge Wind Luftdruck Luftfeuchtigkeit
    00:00 +16°C° 0 mm 2 m/S 753 mmHg 96%
    01:00 +16°C° 0.1 mm 3 m/S 753 mmHg 96%
    02:00 +14°C° 0.1 mm 4 m/S 753 mmHg 96%
    03:00 +14°C° 0.1 mm 4 m/S 753 mmHg 96%
    04:00 +14°C° 0 mm 5 m/S 754 mmHg 94%
    05:00 +15°C° 0 mm 5 m/S 754 mmHg 91%
    06:00 +15°C° 0 mm 5 m/S 755 mmHg 86%
    07:00 +16°C° 0 mm 6 m/S 756 mmHg 81%
    08:00 +17°C° 0 mm 6 m/S 756 mmHg 76%
    09:00 +17°C° 0 mm 6 m/S 757 mmHg 71%
    10:00 +19°C° 0 mm 6 m/S 757 mmHg 69%
    11:00 +18°C° 0 mm 7 m/S 758 mmHg 66%
    12:00 +20°C° 0 mm 7 m/S 758 mmHg 64%
    13:00 +18°C° 0 mm 7 m/S 758 mmHg 65%
    14:00 +18°C° 0 mm 7 m/S 758 mmHg 66%
    15:00 +18°C° 0 mm 7 m/S 759 mmHg 67%
    16:00 +18°C° 0.2 mm 7 m/S 759 mmHg 71%
    17:00 +17°C° 0.2 mm 7 m/S 759 mmHg 76%
    18:00 +16°C° 0.2 mm 6 m/S 759 mmHg 80%
    19:00 +16°C° 0 mm 6 m/S 760 mmHg 83%
    20:00 +15°C° 0 mm 6 m/S 760 mmHg 85%
    21:00 +14°C° 0 mm 5 m/S 761 mmHg 88%
    22:00 +14°C° 0 mm 5 m/S 761 mmHg 88%
    23:00 +14°C° 0 mm 5 m/S 761 mmHg 89%

    Morgen, 19 August, Montag

    Zeit Temperatur Niederschläge Wind Luftdruck Luftfeuchtigkeit
    00:00 +14°C° 0 mm 5 m/S 761 mmHg 89%
    01:00 +14°C° 0.1 mm 5 m/S 761 mmHg 89%
    02:00 +14°C° 0.1 mm 5 m/S 761 mmHg 89%
    03:00 +14°C° 0.1 mm 5 m/S 761 mmHg 89%
    04:00 +14°C° 0 mm 5 m/S 762 mmHg 89%
    05:00 +14°C° 0 mm 5 m/S 762 mmHg 90%
    06:00 +13°C° 0 mm 4 m/S 762 mmHg 90%
    07:00 +15°C° 0.1 mm 5 m/S 762 mmHg 84%
    08:00 +16°C° 0.1 mm 5 m/S 763 mmHg 79%
    09:00 +17°C° 0.1 mm 5 m/S 763 mmHg 73%
    10:00 +19°C° 0.1 mm 5 m/S 763 mmHg 70%
    11:00 +19°C° 0.1 mm 5 m/S 764 mmHg 67%
    12:00 +19°C° 0.1 mm 5 m/S 764 mmHg 63%
    13:00 +19°C° 0 mm 5 m/S 764 mmHg 63%
    14:00 +19°C° 0 mm 5 m/S 764 mmHg 63%
    15:00 +19°C° 0 mm 5 m/S 765 mmHg 63%
    16:00 +19°C° 0 mm 5 m/S 765 mmHg 66%
    17:00 +18°C° 0 mm 4 m/S 765 mmHg 70%
    18:00 +18°C° 0 mm 4 m/S 765 mmHg 73%
    19:00 +15°C° 0 mm 4 m/S 765 mmHg 78%
    20:00 +14°C° 0 mm 4 m/S 766 mmHg 84%
    21:00 +13°C° 0 mm 3 m/S 766 mmHg 89%
    22:00 +13°C° 0 mm 3 m/S 766 mmHg 89%
    23:00 +13°C° 0 mm 3 m/S 766 mmHg 89%

    übermorgen, 20 August, Dienstag

    Zeit Temperatur Niederschläge Wind Luftdruck Luftfeuchtigkeit
    00:00 +12°C° 0 mm 3 m/S 767 mmHg 90%
    01:00 +12°C° 0 mm 3 m/S 767 mmHg 89%
    02:00 +12°C° 0 mm 3 m/S 767 mmHg 89%
    03:00 +12°C° 0 mm 3 m/S 767 mmHg 89%
    04:00 +12°C° 0 mm 3 m/S 767 mmHg 88%
    05:00 +13°C° 0 mm 2 m/S 767 mmHg 88%
    06:00 +13°C° 0 mm 2 m/S 768 mmHg 87%
    07:00 +14°C° 0 mm 2 m/S 768 mmHg 79%
    08:00 +16°C° 0 mm 2 m/S 768 mmHg 72%
    09:00 +18°C° 0 mm 2 m/S 769 mmHg 64%
    10:00 +18°C° 0 mm 2 m/S 769 mmHg 63%
    11:00 +18°C° 0 mm 2 m/S 769 mmHg 62%
    12:00 +19°C° 0 mm 3 m/S 770 mmHg 62%
    13:00 +19°C° 0 mm 3 m/S 770 mmHg 62%
    14:00 +19°C° 0 mm 3 m/S 769 mmHg 62%
    15:00 +19°C° 0 mm 3 m/S 769 mmHg 62%
    16:00 +19°C° 0 mm 3 m/S 770 mmHg 64%
    17:00 +18°C° 0 mm 3 m/S 770 mmHg 66%
    18:00 +17°C° 0 mm 2 m/S 770 mmHg 68%
    19:00 +16°C° 0 mm 2 m/S 770 mmHg 74%
    20:00 +14°C° 0 mm 2 m/S 770 mmHg 79%
    21:00 +13°C° 0 mm 2 m/S 770 mmHg 85%
    22:00 +13°C° 0 mm 2 m/S 770 mmHg 86%
    23:00 +12°C° 0 mm 2 m/S 770 mmHg 86%

    21 August, Mittwoch

    Zeit Temperatur Niederschläge Wind Luftdruck Luftfeuchtigkeit
    00:00 +12°C° 0 mm 2 m/S 770 mmHg 87%
    01:00 +12°C° 0 mm 2 m/S 770 mmHg 87%
    02:00 +12°C° 0 mm 2 m/S 770 mmHg 87%
    03:00 +12°C° 0 mm 1 m/S 769 mmHg 88%
    04:00 +12°C° 0 mm 1 m/S 769 mmHg 87%
    05:00 +12°C° 0 mm 2 m/S 769 mmHg 86%
    06:00 +12°C° 0 mm 2 m/S 769 mmHg 85%
    07:00 +14°C° 0 mm 1 m/S 769 mmHg 77%
    08:00 +16°C° 0 mm 1 m/S 769 mmHg 70%
    09:00 +19°C° 0 mm 1 m/S 769 mmHg 62%
    10:00 +20°C° 0 mm 1 m/S 769 mmHg 59%
    11:00 +21°C° 0 mm 1 m/S 769 mmHg 56%
    12:00 +23°C° 0 mm 1 m/S 769 mmHg 53%
    13:00 +21°C° 0 mm 2 m/S 769 mmHg 55%
    14:00 +21°C° 0 mm 3 m/S 768 mmHg 57%
    15:00 +21°C° 0 mm 3 m/S 768 mmHg 58%
    16:00 +20°C° 0 mm 4 m/S 768 mmHg 62%
    17:00 +19°C° 0 mm 4 m/S 768 mmHg 66%
    18:00 +18°C° 0 mm 4 m/S 768 mmHg 70%
    19:00 +17°C° 0 mm 3 m/S 768 mmHg 75%
    20:00 +14°C° 0 mm 3 m/S 769 mmHg 79%
    21:00 +14°C° 0 mm 2 m/S 769 mmHg 84%
    22:00 +13°C° 0 mm 2 m/S 769 mmHg 85%
    23:00 +13°C° 0 mm 2 m/S 769 mmHg 85%

    22 August, Donnerstag

    Zeit Temperatur Niederschläge Wind Luftdruck Luftfeuchtigkeit
    00:00 +13°C° 0 mm 2 m/S 769 mmHg 85%
    01:00 +12°C° 0 mm 2 m/S 769 mmHg 85%
    02:00 +12°C° 0 mm 2 m/S 769 mmHg 85%
    03:00 +12°C° 0 mm 2 m/S 769 mmHg 85%
    04:00 +12°C° 0 mm 2 m/S 769 mmHg 84%
    05:00 +12°C° 0 mm 2 m/S 769 mmHg 84%
    06:00 +12°C° 0 mm 2 m/S 769 mmHg 83%
    07:00 +14°C° 0 mm 2 m/S 769 mmHg 76%
    08:00 +17°C° 0 mm 2 m/S 769 mmHg 69%
    09:00 +19°C° 0 mm 2 m/S 769 mmHg 62%
    10:00 +20°C° 0 mm 2 m/S 769 mmHg 58%
    11:00 +23°C° 0 mm 1 m/S 769 mmHg 54%
    12:00 +24°C° 0 mm 1 m/S 768 mmHg 50%
    13:00 +24°C° 0 mm 2 m/S 768 mmHg 52%
    14:00 +24°C° 0 mm 2 m/S 768 mmHg 54%
    15:00 +22°C° 0 mm 3 m/S 768 mmHg 56%
    16:00 +21°C° 0 mm 3 m/S 767 mmHg 61%
    17:00 +21°C° 0 mm 3 m/S 767 mmHg 66%
    18:00 +20°C° 0 mm 3 m/S 767 mmHg 71%
    19:00 +18°C° 0 mm 4 m/S 767 mmHg 77%
    20:00 +17°C° 0 mm 4 m/S 767 mmHg 82%
    21:00 +14°C° 0 mm 5 m/S 767 mmHg 88%
    22:00 +14°C° 0 mm 4 m/S 767 mmHg 85%
    23:00 +14°C° 0 mm 4 m/S 767 mmHg 83%

    23 August, Freitag

    Zeit Temperatur Niederschläge Wind Luftdruck Luftfeuchtigkeit
    00:00 +14°C° 0 mm 4 m/S 767 mmHg 81%
    01:00 +14°C° 0 mm 4 m/S 766 mmHg 80%
    02:00 +14°C° 0 mm 4 m/S 766 mmHg 80%
    03:00 +14°C° 0 mm 3 m/S 765 mmHg 79%
    04:00 +14°C° 0 mm 3 m/S 765 mmHg 77%
    05:00 +16°C° 0 mm 3 m/S 765 mmHg 76%
    06:00 +16°C° 0 mm 3 m/S 765 mmHg 74%
    07:00 +18°C° 0 mm 3 m/S 765 mmHg 68%
    08:00 +20°C° 0 mm 3 m/S 765 mmHg 62%
    09:00 +23°C° 0 mm 2 m/S 765 mmHg 56%
    10:00 +24°C° 0 mm 2 m/S 765 mmHg 52%
    11:00 +26°C° 0 mm 2 m/S 764 mmHg 48%
    12:00 +27°C° 0 mm 2 m/S 764 mmHg 44%
    13:00 +27°C° 0 mm 2 m/S 764 mmHg 45%
    14:00 +27°C° 0 mm 2 m/S 764 mmHg 45%
    15:00 +27°C° 0 mm 3 m/S 763 mmHg 46%
    16:00 +26°C° 0 mm 3 m/S 763 mmHg 52%
    17:00 +25°C° 0 mm 3 m/S 763 mmHg 57%
    18:00 +24°C° 0 mm 3 m/S 762 mmHg 63%
    19:00 +22°C° 0 mm 3 m/S 763 mmHg 66%
    20:00 +20°C° 0 mm 4 m/S 763 mmHg 69%
    21:00 +18°C° 0 mm 4 m/S 763 mmHg 72%
    22:00 +18°C° 0 mm 4 m/S 762 mmHg 73%
    23:00 +18°C° 0 mm 4 m/S 762 mmHg 74%
    Mehr zeigen